Volver al catálogo

COSMOS 1556

GLONASS

ActivoNavegaciónMEO
NORAD 14979·PAYLOAD·🇷🇺 Russia

Lanzado May 19, 1984 desde Baikonur Cosmodrome

Loading…

Próximos Pases (próximas 24 horas)

TLE

ActualizadoSource: Space-Track

Época: Sep 11, 2026, 18:58 UTC

1 14979U 84047C   26254.79066228 -.00000063  00000-0  00000-0 0  9992
2 14979  66.3794 326.9351 0010444 193.9749 145.9560  2.12912540328932

Sigue COSMOS 1556 en tiempo real con AllMySat

Download on the App Store